{"data":{"norad_id":59784,"epoch":"2026-09-21T04:21:47.586528Z","epoch_age_seconds":115526,"freshness":"FRESH","line1":"1 59784U 24093C   26264.18180077  .00000475  00000+0  26767-4 0  9990","line2":"2 59784  43.0008 181.3807 0001171 264.0497  96.0221 15.27579389132631","mean_motion":15.27579389,"eccentricity":0.0001171,"inclination_deg":43.0008,"raan_deg":181.3807,"arg_perigee_deg":264.0497,"mean_anomaly_deg":96.0221,"bstar":2.6767e-5,"rev_number":13263,"period_min":94.266786418392,"perigee_km":482.24748048798,"apogee_km":483.85437070016,"semimajor_km":6861.1879255941,"source":"CELESTRAK","updated_at":"2026-09-22T09:00:49.071478Z"}}